User: anonymous   Login
Location: Unspecified
(0.0000°N, 0.0000°E)
Time: 08:50:45
(UTC+00:00)
Language:

USA 179 - Orbit

View from above orbital plane
View from above orbital plane
View from above satellite
View from above satellite

Ground track
Ground track

The orbit data is extracted from the following two-line orbital elements,

1 28384U 04034A   17091.35473395 0.00000000  00000-0  00000-0 0    06
2 28384  63.1435 322.1728 7343929 271.0193  13.8009  2.00633000    09
Epoch (UTC): 01 April 2017 08:30:49
Eccentricity: 0.7343929
inclination: 63.1435°
perigee height: 675 km
apogee height: 39677 km
right ascension of ascending node: 322.1728°
argument of perigee: 271.0193°
revolutions per day: 2.00633000
mean anomaly at epoch: 13.8009°
orbit number at epoch: 0

The dashed part of the orbit path shows where the satellite is in the earth's shadow,  

DLR